www.pogodaiklimat.ru

АРХИВ ПОГОДЫ в Чикаго

Время (UTC), дата Ветер
(напр.,м/с)
 
Видим.   Явления Облачность Т
(С)
Тd
(С)
f
(%)
Тe
(С)
Тes
(С)
Комфортность

P
(гПа)

Po
(гПа)
Тmin
(С)
Tmax
(С)
R
(мм)
SD
(см)
17:51 23.05 штиль  16 км    5/0 7500 м
[верхняя] 
+25.6  +8.9  35  +26  +50  жарко  1021.9  997.5         
18:51 23.05 В  16 км    5/0 7500 м
[верхняя] 
+26.1  +13.9  47  +28  +39  жарко  1021.5  997.2         
19:51 23.05 В  16 км    2/0 7500 м
[верхняя] 
+25.6  +11.7  42  +27  +35  жарко  1020.7  996.5         
20:51 23.05 В  16 км    5/0 7500 м
[верхняя] 
+26.1  +9.4  35  +27  +32  жарко  1020.5  996.2         
21:51 23.05 В  16 км    5/0 7500 м
[верхняя] 
+25.6  +8.3  33  +26  +29  жарко  1020.3  996.2         
22:51 23.05 В  16 км    5/0 7500 м
[верхняя] 
+24.4  +8.3  36  +25  +27  комфорт  1020.3  996.2         
23:51 23.05 В  16 км    5/0 7500 м
[верхняя] 
+22.2  +8.3  41  +23  +24  комфорт  1020.7  996.5         
00:51 24.05 В  16 км    2/0 7500 м
[верхняя] 
+20.0  +8.3  47  +21  +21  комфорт  1021.2  996.9         
01:51 24.05 В  16 км    2/0 7500 м
[верхняя] 
+17.8  +10.0  60  +18  +18    1021.8  997.5         
02:51 24.05 В  16 км    2/0 7500 м
[верхняя] 
+17.2  +10.0  63  +17  +17    1021.8  997.5         
03:51 24.05 В  16 км    2/0 7500 м
[верхняя] 
+16.1  +10.6  70  +16  +16    1021.9  997.5         
04:51 24.05 В  16 км    ясно  +16.1  +11.1  72  +16  +16    1021.4  997.2    +24.4     
05:51 24.05 штиль  16 км    ясно  +15.6  +11.1  75  +15  +15    1021.0  996.9         
06:51 24.05 штиль  16 км    ясно  +15.6  +11.1  75  +15  +15    1021.0  996.9         
07:51 24.05 штиль  16 км    ясно  +15.0  +11.1  77  +15  +15    1021.1  996.9         
08:51 24.05 штиль  14 км    ясно  +14.4  +11.1  81  +14  +14    1021.5  997.2         
09:51 24.05 штиль  13 км    5/0 7500 м
[верхняя] 
+15.0  +11.7  81  +15  +15    1021.9  997.9         
10:51 24.05 Ю  16 км    5/0 7500 м
[верхняя] 
+17.2  +12.2  72  +18  +18    1022.3  998.2         
11:51 24.05 Ю  16 км    5/0 7500 м
[верхняя] 
+20.6  +12.2  59  +23  +24  комфорт  1022.4  998.2         
12:51 24.05 Ю  16 км    2/0 7500 м
[верхняя] 
+23.3  +12.2  50  +26  +29  жарко  1022.2  997.9         
13:51 24.05 Ю  16 км    2/0 7500 м
[верхняя] 
+25.0  +11.7  43  +26  +31  жарко  1021.7  997.5         
14:51 24.05 Ю  16 км    2/0 7500 м
[верхняя] 
+26.7  +12.8  42  +28  +34  жарко  1021.3  997.2         
15:51 24.05 Ю  16 км    5/0 7500 м
[верхняя] 
+27.8  +12.8  40  +29  +40  жарко  1021.0  996.9         
16:51 24.05 нст  16 км    5/0 7500 м
[верхняя] 
+27.8  +12.8  40  +29  +45  жарко  1020.2  996.2         
17:51 24.05 нст  16 км    8/0 7500 м
[верхняя] 
+28.9  +12.8  37  +30  +44  жарко  1019.4  995.2         
18:51 24.05 ЮЗ  16 км    8/0 2100 м
[средняя верхняя] 
+29.4  +12.8  36  +31  +42  жарко  1018.9  994.9         
19:51 24.05 Ю  16 км    8/0 2100 м
[средняя верхняя] 
+29.0  +12.0  35  +30  +37  жарко  1018.3  994.2         
20:51 24.05 Ю  16 км    8/0 2100 м
[средняя верхняя] 
+29.4  +12.8  36  +31  +36  жарко  1017.6  993.6         
21:51 24.05 Ю  16 км    8/0 7500 м
[верхняя] 
+29.4  +12.8  36  +31  +34  жарко  1016.9  992.9         
22:51 24.05 В  16 км    8/0 7500 м
[верхняя] 
+27.8  +12.2  38  +29  +31  жарко  1016.3  992.6         
23:51 24.05 ЮВ  16 км    8/0 7500 м
[верхняя] 
+26.1  +11.7  41  +27  +28  жарко  1016.3  992.2         
00:51 25.05 ЮВ  16 км    5/0 7500 м
[верхняя] 
+23.9  +11.1  45  +25  +25  комфорт  1016.3  992.2         
01:51 25.05 ЮВ  16 км    2/0 7500 м
[верхняя] 
+22.8  +11.7  50  +25  +25  комфорт  1016.5  992.6         
02:51 25.05 ЮВ  16 км    2/0 7500 м
[верхняя] 
+22.2  +11.7  51  +24  +24  комфорт  1016.2  992.2         
03:51 25.05 Ю  16 км    2/0 7500 м
[верхняя] 
+21.7  +12.2  55  +24  +24  комфорт  1016.0  992.2         
04:51 25.05 Ю  16 км    2/0 7500 м
[верхняя] 
+21.1  +12.2  57  +23  +23  комфорт  1016.0  992.2         
05:51 25.05 Ю  16 км    ясно  +20.6  +11.1  54  +23  +23  комфорт  1015.2  991.6         
06:51 25.05 Ю  16 км    ясно  +20.6  +10.6  53  +23  +23  комфорт  1014.9  991.2         
07:51 25.05 Ю  16 км    ясно  +20.0  +10.6  55  +22  +22  комфорт  1014.4  990.6         
08:51 25.05 Ю  16 км    2/0 7500 м
[верхняя] 
+20.0  +10.6  55  +22  +22  комфорт  1013.9  990.3         
09:51 25.05 Ю  16 км    2/0 7500 м
[верхняя] 
+20.6  +11.7  57  +23  +23  комфорт  1013.6  989.9         
10:51 25.05 ЮЗ  16 км    2/0 7500 м
[верхняя] 
+21.7  +12.2  55  +24  +24  комфорт  1013.3  989.6         
11:51 25.05 ЮЗ  16 км    2/0 7500 м
[верхняя] 
+23.3  +13.3  53  +26  +27  жарко  1013.4  989.6         
12:51 25.05 ЮЗ  16 км    2/0 7500 м
[верхняя] 
+25.6  +14.4  50  +28  +30  жарко  1013.3  989.6         
13:51 25.05 ЮЗ  16 км    2/0 7500 м
[верхняя] 
+27.2  +14.4  45  +29  +32  жарко  1012.7  988.9         
14:51 25.05 ЮЗ  16 км    2/2 1800 м
[верхняя] 
+28.9  +15.0  43  +31  +37  жарко  1012.4  988.6         
15:51 25.05 З  16 км    5/2 1800 м
[верхняя] 
+29.4  +14.4  40  +31  +36  жарко  1012.2  988.6         
16:51 25.05 ЮЗ  16 км    8/5 1800 м
[верхняя] 
+31.0  +14.0  36  +33  +37  душно  1011.3  987.6  +21.7       

 

Местоположение метеостанции Chicago-O`Hare International Airport: широта 41.9797 долгота -87.9044 высота над уровнем моря 203 м.

В архиве по умолчанию представлена погода в Чикаго за последние 1-2 суток. Обновление информации о фактической погоде в базе происходит ежечасно! Архивные данные за месяц целиком и за предыдущие месяцы Вы можете получить, выбрав интересующий диапазон дат из раскрывающегося списка и нажав кнопку "Ввод!".

Внимание! Архив погоды МЕТАР в базе сайта в настоящее время начинается c 1 января 2013 г. Нет смысла пытаться выбрать более раннюю дату.

Внимание! Время в таблицах - всемирное. Для получения местного времени необходимо прибавить поправку, которая в Чикаго равна -6 ч.

Ветер - указаны скорость ветра в м/с и направление, откуда дует ветер: С - северный, СВ - северо-восточный, В - восточный, ЮВ - юго-восточный, Ю - южный, ЮЗ - юго-западный, З - западный, СЗ - северо-западный.
Видимость - горизонтальная дальность видимости в метрах или километрах. При видимости от 1 до 10 км при отсутствии осадков обычно наблюдается дымка, при ухудшении видимости до 1 км и менее - туман. В сухую погоду видимость может ухудшаться дымом, пылью или мглою.
Атмосферные явления - указаны явления, наблюдавшиеся в указанный момент времени.
Облачность - указаны через наклонную черту верхняя и нижняя облачность в баллах и высота нижней границы облаков в метрах. Внимание: облачность, как и прочие метеорологические величины в США измеряются автоматическими метеостанциями. Указанные значения в баллах носят условный характер и показывают процент времени, в течение которого, в среднем, лазерный луч высотомера отражался от облаков обратно.
T - Температура воздуха - температура, измеренная на высоте 2 м над землей.
Td - Температура точки росы - температура, при понижении до которой содержащийся в воздухе водяной пар достигнет насыщения.
f - Относительная влажность воздуха - влажноcть воздуха, измеренная на высоте 2 м над землей.
Te - Эффективная температура - температура, которую ощущает одетый по сезону человек в тени. Характеристика душности погоды. При расчете учитывается влияние влажности воздуха и скорости ветра на теплоощущения человека.
Tes - Эффективная температура на солнце - температура, которую ощущает человек, с поправкой на солнечный нагрев. Характеристика знойности погоды. Зависит от высоты солнца над горизонтом, облачности и скорости ветра. Ночью, в пасмурную погоду, а также при ветре 12 м/с и более поправка равна нулю.
P - Атмосферное давление - приведенное к уровню моря атмосферное давление.
Po - Атмосферное давление - измеренное на уровне метеостанции атмосферное давление.
Tmin - Минимальная температура - минимум температуры воздуха на высоте 2 м над землей.
Tmax - Максимальная температура - максимум температуры воздуха на высоте 2 м над землей.
R - Количество осадков - Количество выпавших осадков за 3 или 6 часов, мм.
SD - Снежный покров - Высота снежного покрова, см.